TimeCDT,TemperatureF,Dew PointF,Humidity,Sea Level PressureIn,VisibilityMPH,Wind Direction,Wind SpeedMPH,Gust SpeedMPH,PrecipitationIn,Events,Conditions,WindDirDegrees,DateUTC
12:15 AM,27.5,14.9,59,30.05,10.0,West,13.8,-,N/A,,Scattered Clouds,270,2013-03-20 05:15:00
12:35 AM,27.3,14.9,60,30.04,10.0,West,11.5,-,N/A,,Mostly Cloudy,270,2013-03-20 05:35:00
12:55 AM,26.8,15.3,62,30.04,10.0,West,10.4,-,N/A,,Overcast,260,2013-03-20 05:55:00
1:15 AM,27.0,15.8,63,30.03,10.0,West,9.2,-,N/A,,Overcast,280,2013-03-20 06:15:00
1:35 AM,27.1,16.0,63,30.03,10.0,West,9.2,-,N/A,,Overcast,270,2013-03-20 06:35:00
1:55 AM,27.1,15.8,62,30.02,10.0,West,9.2,-,N/A,,Overcast,280,2013-03-20 06:55:00
2:15 AM,27.1,15.6,62,30.02,10.0,West,8.1,-,N/A,,Overcast,280,2013-03-20 07:15:00
2:35 AM,27.1,15.4,61,30.02,10.0,West,10.4,-,N/A,,Overcast,280,2013-03-20 07:35:00
2:55 AM,27.0,14.9,60,30.02,10.0,West,12.7,-,N/A,,Overcast,280,2013-03-20 07:55:00
3:15 AM,27.0,14.0,58,30.01,10.0,West,12.7,19.6,N/A,,Overcast,280,2013-03-20 08:15:00
3:35 AM,26.6,13.6,58,30.01,10.0,West,11.5,-,N/A,,Overcast,280,2013-03-20 08:35:00
3:55 AM,26.6,13.5,58,30.00,10.0,West,10.4,-,N/A,,Overcast,280,2013-03-20 08:55:00
4:15 AM,26.1,13.5,59,30.00,10.0,West,11.5,-,N/A,,Mostly Cloudy,280,2013-03-20 09:15:00
4:35 AM,25.5,13.1,59,29.99,10.0,West,12.7,-,N/A,,Scattered Clouds,280,2013-03-20 09:35:00
4:55 AM,24.6,12.9,61,29.99,10.0,WNW,10.4,-,N/A,,Clear,290,2013-03-20 09:55:00
5:15 AM,23.9,11.8,60,29.99,10.0,WNW,11.5,-,N/A,,Clear,290,2013-03-20 10:15:00
5:35 AM,23.4,11.3,60,30.00,10.0,WNW,9.2,-,N/A,,Clear,290,2013-03-20 10:35:00
5:55 AM,22.6,10.6,60,30.01,10.0,WNW,13.8,-,N/A,,Clear,290,2013-03-20 10:55:00
6:15 AM,21.9,10.0,60,30.01,10.0,WNW,11.5,-,N/A,,Clear,300,2013-03-20 11:15:00
6:35 AM,21.4,10.0,62,30.01,10.0,WNW,9.2,-,N/A,,Clear,290,2013-03-20 11:35:00
6:55 AM,20.8,9.3,61,30.02,10.0,WNW,11.5,-,N/A,,Clear,290,2013-03-20 11:55:00
7:15 AM,20.3,8.4,60,30.03,10.0,WNW,11.5,17.3,N/A,,Clear,290,2013-03-20 12:15:00
7:35 AM,20.3,8.8,61,30.04,10.0,West,8.1,-,N/A,,Clear,280,2013-03-20 12:35:00
8:15 AM,21.0,8.8,59,30.03,10.0,WNW,15.0,19.6,N/A,,Clear,300,2013-03-20 13:15:00
8:35 AM,21.2,8.2,57,30.04,10.0,WNW,16.1,21.9,N/A,,Clear,300,2013-03-20 13:35:00
8:55 AM,21.6,7.9,56,30.04,10.0,WNW,15.0,19.6,N/A,,Clear,300,2013-03-20 13:55:00
9:15 AM,21.7,7.9,55,30.03,10.0,WNW,13.8,20.7,N/A,,Clear,300,2013-03-20 14:15:00
9:35 AM,22.1,7.7,54,30.04,10.0,WNW,15.0,20.7,N/A,,Clear,300,2013-03-20 14:35:00
9:55 AM,22.6,8.1,54,30.04,10.0,WNW,12.7,-,N/A,,Clear,290,2013-03-20 14:55:00
10:15 AM,22.6,8.2,54,30.03,10.0,West,11.5,-,N/A,,Clear,280,2013-03-20 15:15:00
10:35 AM,22.6,7.7,53,30.04,10.0,West,15.0,-,N/A,,Clear,280,2013-03-20 15:35:00
10:55 AM,22.8,7.9,53,30.04,10.0,West,16.1,20.7,N/A,,Clear,270,2013-03-20 15:55:00
11:15 AM,22.8,7.3,52,30.04,10.0,WNW,15.0,19.6,N/A,,Scattered Clouds,290,2013-03-20 16:15:00
11:35 AM,23.4,6.4,48,30.04,10.0,WNW,16.1,23.0,N/A,,Scattered Clouds,290,2013-03-20 16:35:00
11:55 AM,23.7,6.4,48,30.04,10.0,WNW,13.8,23.0,N/A,,Clear,290,2013-03-20 16:55:00
12:15 PM,24.3,7.2,48,30.04,10.0,WNW,17.3,24.2,N/A,,Scattered Clouds,290,2013-03-20 17:15:00
12:35 PM,24.3,7.3,49,30.03,10.0,WNW,16.1,23.0,N/A,,Clear,290,2013-03-20 17:35:00
12:55 PM,24.3,6.8,47,30.03,10.0,West,16.1,21.9,N/A,,Clear,270,2013-03-20 17:55:00
1:15 PM,25.5,7.0,45,30.02,10.0,West,15.0,19.6,N/A,,Clear,280,2013-03-20 18:15:00
1:35 PM,26.2,7.3,45,30.02,10.0,WNW,18.4,23.0,N/A,,Scattered Clouds,290,2013-03-20 18:35:00
1:55 PM,26.2,6.3,43,30.01,10.0,NW,13.8,19.6,N/A,,Scattered Clouds,310,2013-03-20 18:55:00
2:15 PM,26.8,7.7,45,30.01,10.0,West,11.5,23.0,N/A,,Scattered Clouds,270,2013-03-20 19:15:00
2:35 PM,26.4,7.0,44,30.00,10.0,NW,13.8,20.7,N/A,,Mostly Cloudy,310,2013-03-20 19:35:00
2:55 PM,26.2,7.0,44,29.99,10.0,West,17.3,23.0,N/A,,Scattered Clouds,280,2013-03-20 19:55:00
3:15 PM,26.8,6.8,43,29.99,10.0,WNW,19.6,26.5,N/A,,Scattered Clouds,290,2013-03-20 20:15:00
3:35 PM,26.6,7.0,43,29.99,10.0,West,19.6,26.5,N/A,,Scattered Clouds,270,2013-03-20 20:35:00
3:55 PM,25.9,7.0,45,29.99,10.0,WNW,17.3,21.9,N/A,,Scattered Clouds,290,2013-03-20 20:55:00
4:15 PM,25.0,6.4,45,29.99,10.0,West,16.1,-,N/A,,Scattered Clouds,280,2013-03-20 21:15:00
4:35 PM,25.2,6.4,45,29.99,10.0,West,17.3,24.2,N/A,,Mostly Cloudy,270,2013-03-20 21:35:00
4:55 PM,25.2,7.0,46,29.99,10.0,West,18.4,21.9,N/A,,Overcast,280,2013-03-20 21:55:00
5:15 PM,24.8,7.3,48,30.00,10.0,West,11.5,21.9,N/A,,Mostly Cloudy,270,2013-03-20 22:15:00
5:35 PM,24.6,7.0,47,30.00,10.0,West,19.6,-,N/A,,Overcast,270,2013-03-20 22:35:00
5:55 PM,24.3,7.3,49,30.00,10.0,West,17.3,21.9,N/A,,Overcast,280,2013-03-20 22:55:00
6:15 PM,23.9,7.3,49,30.01,10.0,WNW,15.0,19.6,N/A,,Overcast,290,2013-03-20 23:15:00
6:35 PM,23.5,7.5,50,30.01,10.0,West,13.8,-,N/A,,Overcast,270,2013-03-20 23:35:00
6:55 PM,23.2,8.1,52,30.01,10.0,WNW,16.1,-,N/A,,Overcast,290,2013-03-20 23:55:00
7:15 PM,23.0,7.5,52,30.01,10.0,WNW,13.8,18.4,N/A,,Overcast,290,2013-03-21 00:15:00
7:35 PM,23.0,8.1,53,30.01,10.0,WNW,13.8,-,N/A,,Overcast,290,2013-03-21 00:35:00
7:55 PM,22.6,9.5,57,30.01,10.0,NW,10.4,-,N/A,,Overcast,310,2013-03-21 00:55:00
8:15 PM,22.3,10.9,62,30.01,10.0,NW,9.2,-,N/A,,Overcast,310,2013-03-21 01:15:00
8:35 PM,21.7,10.8,63,30.01,10.0,NW,10.4,-,N/A,,Mostly Cloudy,320,2013-03-21 01:35:00
8:55 PM,21.2,11.8,67,30.01,10.0,NW,15.0,-,N/A,,Mostly Cloudy,320,2013-03-21 01:55:00
9:15 PM,21.0,13.8,74,30.01,10.0,NW,11.5,-,N/A,,Overcast,320,2013-03-21 02:15:00
9:35 PM,20.7,14.7,78,30.01,5.0,WNW,11.5,-,N/A,,Overcast,300,2013-03-21 02:35:00
9:55 PM,20.5,14.9,79,30.01,10.0,WNW,9.2,-,N/A,,Overcast,300,2013-03-21 02:55:00
10:15 PM,20.3,14.2,77,30.01,10.0,NW,8.1,-,N/A,,Overcast,310,2013-03-21 03:15:00
10:35 PM,20.3,12.6,72,30.01,10.0,WNW,8.1,-,N/A,,Overcast,300,2013-03-21 03:35:00
10:55 PM,20.3,12.4,71,30.01,4.0,NW,12.7,-,N/A,,Overcast,310,2013-03-21 03:55:00
11:15 PM,19.6,13.6,78,30.00,10.0,WNW,6.9,-,N/A,,Overcast,300,2013-03-21 04:15:00
11:35 PM,19.4,13.3,77,30.00,10.0,WNW,9.2,-,N/A,,Overcast,290,2013-03-21 04:35:00
11:55 PM,19.6,13.6,78,30.00,5.0,NW,11.5,-,N/A,,Overcast,320,2013-03-21 04:55:00